User: anonymous   Login
Location: State Camp
(41.2367°N, 77.7828°W)
Time: 19:54:46
(UTC-04:00)
Language:

ADEOS Rocket - Orbit

View from above orbital plane
View from above orbital plane
View from above satellite
View from above satellite

Ground track
Ground track

The orbit data is extracted from the following two-line orbital elements,

1 24279U 96046C   17227.94601159  .00000030  00000-0  80672-4 0  9993
2 24279  98.7554 164.5282 0300628 136.2955 269.0508 13.47088474 32294
Epoch (UTC): 15 August 2017 22:42:15
Eccentricity: 0.0300628
inclination: 98.7554°
perigee height: 858 km
apogee height: 1307 km
right ascension of ascending node: 164.5282°
argument of perigee: 136.2955°
revolutions per day: 13.47088474
mean anomaly at epoch: 269.0508°
orbit number at epoch: 3229

The dashed part of the orbit path shows where the satellite is in the earth's shadow,  

DLR